Tracking 26218 objects as of 26-Sep-2022
HD Live streaming from Space Station
objects crossing your sky now

STARLINK-3391

Track STARLINK-3391 now!
10-day predictions
STARLINK-3391 is classified as:


NORAD ID: 51117
Int'l Code: 2022-005P
Perigee: 546.0 km
Apogee: 547.7 km
Inclination: 53.2 °
Period: 95.4 minutes
Semi major axis: 6917 km
RCS: Unknown
Launch date: January 19, 2022
Source: United States (US)
Launch site: AIR FORCE EASTERN TEST RANGE (AFETR)
aabbcc
Your satellite tracking list
Your tracking list is empty




NASA's NSSDC Master Catalog

Two Line Element Set (TLE):
1 51117U 22005P   22268.05750019  .00001887  00000-0  13660-3 0  9994
2 51117  53.2179 192.8036 0001272  71.8403 288.2727 15.08848226 38414
Source of the keplerian elements: AFSPC